| time (UTC) | temp C | wind direction | speed KPH | gust KPH | rain 1hr cm | rain 24hr cm | rain mn cm | humidity % | barometer mb |
| 20260506122115 | 13 | 354 | 14.5 | 17.7 | 0.00 | 0.00 | 0.00 | 84 | 1011.3 |
| 20260506121612 | 13 | 324 | 12.9 | 16.1 | 0.00 | 0.00 | 0.00 | 84 | 1011.4 |
| 20260506121109 | 13 | 318 | 16.1 | 17.7 | 0.00 | 0.00 | 0.00 | 84 | 1011.3 |
| 20260506120607 | 13 | 352 | 17.7 | 20.9 | 0.00 | 0.00 | 0.00 | 84 | 1011.1 |
| 20260506120104 | 13 | 347 | 11.3 | 12.9 | 0.00 | 0.00 | 0.00 | 84 | 1011.3 |
| 20260506115602 | 13 | 12 | 9.7 | 16.1 | 0.00 | 0.00 | 0.00 | 85 | 1011.1 |
| 20260506115100 | 13 | 348 | 4.8 | 9.7 | 0.00 | 0.00 | 0.00 | 85 | 1011.0 |
| 20260506114557 | 13 | 341 | 6.4 | 9.7 | 0.00 | 0.00 | 0.00 | 85 | 1010.8 |
| 20260506114055 | 13 | 357 | 17.7 | 20.9 | 0.00 | 0.00 | 0.00 | 85 | 1010.9 |
| 20260506113553 | 13 | 352 | 17.7 | 20.9 | 0.00 | 0.00 | 0.00 | 85 | 1010.5 |
| 20260506113050 | 13 | 327 | 11.3 | 12.9 | 0.00 | 0.00 | 0.00 | 85 | 1010.6 |
| 20260506112546 | 13 | 7 | 12.9 | 14.5 | 0.00 | 0.00 | 0.00 | 84 | 1010.6 |
| 20260506112044 | 13 | 6 | 9.7 | 16.1 | 0.00 | 0.00 | 0.00 | 84 | 1010.6 |
| 20260506111542 | 13 | 11 | 11.3 | 14.5 | 0.00 | 0.00 | 0.00 | 84 | 1010.5 |
| 20260506111038 | 13 | 348 | 8.0 | 11.3 | 0.00 | 0.00 | 0.00 | 85 | 1010.3 |
| 20260506110536 | 13 | 344 | 17.7 | 22.5 | 0.00 | 0.00 | 0.00 | 84 | 1010.3 |
| 20260506110033 | 14 | 348 | 20.9 | 22.5 | 0.00 | 0.00 | 0.00 | 85 | 1010.1 |
| 20260506105529 | 14 | 330 | 3.2 | 9.7 | 0.00 | 0.00 | 0.00 | 86 | 1010.2 |
| 20260506105027 | 14 | 354 | 8.0 | 11.3 | 0.00 | 0.00 | 0.00 | 86 | 1009.9 |
| 20260506104525 | 14 | 340 | 8.0 | 9.7 | 0.00 | 0.00 | 0.00 | 86 | 1009.9 |
| 20260506104022 | 14 | 317 | 8.0 | 9.7 | 0.00 | 0.00 | 0.00 | 86 | 1009.6 |
| 20260506103519 | 14 | 18 | 6.4 | 11.3 | 0.00 | 0.00 | 0.00 | 87 | 1009.6 |
| 20260506103016 | 14 | 329 | 1.6 | 4.8 | 0.00 | 0.00 | 0.00 | 88 | 1009.6 |
| 20260506102515 | 14 | 341 | 6.4 | 9.7 | 0.00 | 0.00 | 0.00 | 89 | 1009.7 |
| 20260506102011 | 14 | 333 | 0.0 | 0.0 | 0.00 | 0.00 | 0.00 | 89 | 1009.7 |
| 20260506101508 | 14 | 6 | 11.3 | 12.9 | 0.00 | 0.00 | 0.00 | 89 | 1009.3 |
| 20260506101005 | 13 | 350 | 1.6 | 3.2 | 0.00 | 0.00 | 0.00 | 90 | 1009.3 |
| 20260506100503 | 13 | 6 | 11.3 | 12.9 | 0.00 | 0.00 | 0.00 | 90 | 1009.3 |
| 20260506100001 | 13 | 344 | 4.8 | 11.3 | 0.00 | 0.00 | 0.00 | 91 | 1009.3 |
| 20260506095459 | 13 | 3 | 12.9 | 14.5 | 0.00 | 0.00 | 0.00 | 92 | 1009.1 |
| 20260506094955 | 13 | 356 | 11.3 | 11.3 | 0.00 | 0.00 | 0.00 | 92 | 1009.1 |
| 20260506094453 | 13 | 348 | 9.7 | 11.3 | 0.00 | 0.00 | 0.00 | 92 | 1009.0 |
| 20260506093951 | 14 | 316 | 14.5 | 16.1 | 0.00 | 0.00 | 0.00 | 92 | 1009.0 |
| 20260506093449 | 14 | 350 | 9.7 | 12.9 | 0.00 | 0.00 | 0.00 | 92 | 1008.9 |
| 20260506092946 | 14 | 331 | 12.9 | 16.1 | 0.00 | 0.00 | 0.00 | 91 | 1009.1 |
| 20260506092444 | 14 | 325 | 12.9 | 16.1 | 0.00 | 0.00 | 0.00 | 91 | 1008.9 |
| 20260506091940 | 14 | 347 | 6.4 | 9.7 | 0.00 | 0.00 | 0.00 | 91 | 1009.2 |
| 20260506091439 | 15 | 317 | 14.5 | 16.1 | 0.00 | 0.00 | 0.00 | 91 | 1009.0 |
| 20260506090936 | 15 | 348 | 3.2 | 4.8 | 0.00 | 0.00 | 0.00 | 90 | 1009.0 |
| 20260506090433 | 15 | 344 | 11.3 | 12.9 | 0.00 | 0.00 | 0.00 | 90 | 1008.9 |
| 20260506085930 | 15 | 337 | 6.4 | 12.9 | 0.00 | 0.00 | 0.00 | 90 | 1008.9 |
| 20260506085427 | 15 | 333 | 8.0 | 11.3 | 0.00 | 0.00 | 0.00 | 89 | 1009.0 |
| 20260506084923 | 15 | 315 | 0.0 | 0.0 | 0.00 | 0.00 | 0.00 | 87 | 1008.6 |
| 20260506084420 | 16 | 331 | 0.0 | 0.0 | 0.00 | 0.00 | 0.00 | 87 | 1008.7 |
| 20260506083916 | 16 | 351 | 3.2 | 4.8 | 0.00 | 0.00 | 0.00 | 86 | 1008.4 |
| 20260506083414 | 16 | 340 | 3.2 | 4.8 | 0.00 | 0.00 | 0.00 | 85 | 1008.4 |
| 20260506082911 | 16 | 346 | 3.2 | 6.4 | 0.00 | 0.00 | 0.00 | 84 | 1008.4 |
| 20260506082408 | 16 | 325 | 0.0 | 0.0 | 0.00 | 0.00 | 0.00 | 84 | 1008.3 |
| 20260506081903 | 16 | 351 | 0.0 | 0.0 | 0.00 | 0.00 | 0.00 | 84 | 1008.2 |
| 20260506081402 | 16 | 16 | 3.2 | 4.8 | 0.00 | 0.00 | 0.00 | 84 | 1008.4 |
| 20260506080859 | 16 | 1 | 1.6 | 4.8 | 0.00 | 0.00 | 0.00 | 84 | 1008.3 |
| 20260506080355 | 16 | 24 | 1.6 | 3.2 | 0.00 | 0.00 | 0.00 | 84 | 1008.3 |
| 20260506073339 | 17 | 1 | 9.7 | 11.3 | 0.00 | 0.00 | 0.00 | 84 | 1008.5 |
| 20260506072836 | 17 | 342 | 6.4 | 9.7 | 0.00 | 0.00 | 0.00 | 84 | 1008.4 |
| 20260506072334 | 17 | 23 | 6.4 | 11.3 | 0.00 | 0.00 | 0.00 | 84 | 1008.5 |
| 20260506071831 | 17 | 341 | 9.7 | 12.9 | 0.00 | 0.00 | 0.00 | 84 | 1008.4 |
| 20260506071330 | 17 | 332 | 12.9 | 16.1 | 0.00 | 0.00 | 0.00 | 84 | 1008.4 |
| 20260506070826 | 17 | 353 | 3.2 | 9.7 | 0.00 | 0.00 | 0.00 | 84 | 1008.8 |
| 20260506070323 | 17 | 2 | 9.7 | 11.3 | 0.00 | 0.00 | 0.00 | 84 | 1009.0 |
| 20260506062300 | 17 | 5 | 3.2 | 4.8 | 0.00 | 0.00 | 0.00 | 83 | 1008.5 |
| 20260506061756 | 18 | 351 | 8.0 | 11.3 | 0.00 | 0.00 | 0.00 | 83 | 1008.3 |
| 20260506061253 | 18 | 348 | 6.4 | 11.3 | 0.00 | 0.00 | 0.00 | 83 | 1008.2 |
| 20260506060751 | 18 | 359 | 9.7 | 12.9 | 0.00 | 0.00 | 0.00 | 82 | 1008.2 |
| 20260506060249 | 18 | 11 | 11.3 | 14.5 | 0.00 | 0.00 | 0.00 | 82 | 1008.2 |
| 20260506051220 | 20 | 355 | 3.2 | 9.7 | 0.00 | 0.00 | 0.00 | 81 | 1008.2 |
| 20260506050719 | 20 | 345 | 9.7 | 11.3 | 0.00 | 0.00 | 0.00 | 80 | 1008.3 |
| 20260506050215 | 20 | 345 | 14.5 | 14.5 | 0.00 | 0.00 | 0.00 | 80 | 1007.9 |
| 20260506044707 | 20 | 341 | 6.4 | 11.3 | 0.00 | 0.00 | 0.00 | 80 | 1008.1 |
| 20260506044203 | 20 | 353 | 9.7 | 12.9 | 0.00 | 0.00 | 0.00 | 79 | 1007.9 |
| 20260506043701 | 21 | 342 | 11.3 | 12.9 | 0.00 | 0.00 | 0.00 | 79 | 1008.1 |
| 20260506043158 | 21 | 350 | 14.5 | 14.5 | 0.00 | 0.00 | 0.00 | 78 | 1007.7 |
| 20260506042657 | 21 | 334 | 12.9 | 14.5 | 0.00 | 0.00 | 0.00 | 78 | 1008.2 |
| 20260506042155 | 21 | 341 | 12.9 | 16.1 | 0.00 | 0.00 | 0.00 | 78 | 1007.9 |
| 20260506041653 | 21 | 7 | 12.9 | 16.1 | 0.00 | 0.00 | 0.00 | 77 | 1008.0 |
| 20260506041150 | 21 | 352 | 11.3 | 14.5 | 0.00 | 0.00 | 0.00 | 77 | 1007.7 |
| 20260506040647 | 21 | 15 | 11.3 | 14.5 | 0.00 | 0.00 | 0.00 | 77 | 1007.6 |
| 20260506040138 | 21 | 350 | 11.3 | 12.9 | 0.00 | 0.00 | 0.00 | 77 | 1007.8 |
| 20260506035636 | 22 | 318 | 6.4 | 11.3 | 0.00 | 0.00 | 0.00 | 76 | 1007.6 |
| 20260506035132 | 22 | 22 | 6.4 | 6.4 | 0.00 | 0.00 | 0.00 | 76 | 1007.6 |
| 20260506034629 | 22 | 343 | 3.2 | 6.4 | 0.00 | 0.00 | 0.00 | 76 | 1007.3 |
| 20260506034126 | 22 | 11 | 9.7 | 11.3 | 0.00 | 0.00 | 0.00 | 75 | 1007.1 |
| 20260506033623 | 22 | 323 | 6.4 | 9.7 | 0.00 | 0.00 | 0.00 | 76 | 1007.4 |
| 20260506033120 | 22 | 5 | 9.7 | 9.7 | 0.00 | 0.00 | 0.00 | 76 | 1007.1 |
| 20260506032618 | 22 | 351 | 8.0 | 9.7 | 0.00 | 0.00 | 0.00 | 76 | 1007.1 |
| 20260506032114 | 22 | 11 | 11.3 | 12.9 | 0.00 | 0.00 | 0.00 | 76 | 1007.2 |
| 20260506031611 | 22 | 10 | 9.7 | 11.3 | 0.00 | 0.00 | 0.00 | 76 | 1007.4 |
| 20260506031108 | 22 | 313 | 8.0 | 9.7 | 0.00 | 0.00 | 0.00 | 76 | 1007.4 |
| 20260506030607 | 22 | 320 | 9.7 | 11.3 | 0.00 | 0.00 | 0.00 | 75 | 1007.1 |
| 20260506030104 | 23 | 320 | 9.7 | 16.1 | 0.00 | 0.00 | 0.00 | 76 | 1007.1 |
| 20260506025601 | 23 | 316 | 11.3 | 12.9 | 0.00 | 0.00 | 0.00 | 75 | 1007.0 |
| 20260506025056 | 23 | 325 | 11.3 | 12.9 | 0.00 | 0.00 | 0.00 | 75 | 1006.5 |
| 20260506024554 | 25 | 314 | 11.3 | 14.5 | 0.00 | 0.00 | 0.00 | 78 | 1006.8 |
| 20260506024050 | 25 | 223 | 0.0 | 0.0 | 0.00 | 0.00 | 0.00 | 84 | 1006.4 |
| 20260506023546 | 25 | 232 | 0.0 | 0.0 | 0.00 | 0.00 | 0.00 | 85 | 1006.1 |
| 20260506023044 | 25 | 222 | 0.0 | 0.0 | 0.00 | 0.00 | 0.00 | 85 | 1006.0 |
| 20260506022541 | 25 | 199 | 0.0 | 0.0 | 0.00 | 0.00 | 0.00 | 85 | 1005.5 |
| 20260506022039 | 25 | 220 | 0.0 | 0.0 | 0.00 | 0.00 | 0.00 | 85 | 1005.4 |
| 20260506021536 | 25 | 189 | 0.0 | 0.0 | 0.00 | 0.00 | 0.00 | 84 | 1005.5 |
| 20260506021033 | 25 | 200 | 0.0 | 0.0 | 0.00 | 0.00 | 0.00 | 84 | 1005.2 |
| 20260506020531 | 25 | 198 | 0.0 | 0.0 | 0.00 | 0.00 | 0.00 | 84 | 1005.3 |
| 20260506020028 | 25 | 185 | 0.0 | 0.0 | 0.00 | 0.00 | 0.00 | 84 | 1005.0 |
| 20260506015525 | 25 | 184 | 0.0 | 0.0 | 0.00 | 0.00 | 0.00 | 84 | 1005.0 |
| 20260506015022 | 25 | 188 | 0.0 | 0.0 | 0.00 | 0.00 | 0.00 | 84 | 1005.0 |
| 20260506014519 | 25 | 198 | 0.0 | 0.0 | 0.00 | 0.00 | 0.00 | 84 | 1005.1 |
| 20260506014015 | 25 | 233 | 0.0 | 0.0 | 0.00 | 0.00 | 0.00 | 83 | 1005.1 |
| 20260506013513 | 25 | 235 | 0.0 | 0.0 | 0.00 | 0.00 | 0.00 | 83 | 1004.9 |
| 20260506013010 | 25 | 357 | 0.0 | 0.0 | 0.00 | 0.00 | 0.00 | 83 | 1004.7 |
| 20260506012506 | 26 | 206 | 0.0 | 0.0 | 0.00 | 0.00 | 0.00 | 83 | 1004.8 |
| 20260506012003 | 26 | 206 | 0.0 | 0.0 | 0.00 | 0.00 | 0.00 | 82 | 1004.4 |
| 20260506011501 | 26 | 142 | 6.4 | 6.4 | 0.00 | 0.00 | 0.00 | 82 | 1004.6 |
| 20260506010957 | 26 | 151 | 6.4 | 9.7 | 0.00 | 0.00 | 0.00 | 82 | 1004.2 |
| 20260506010456 | 26 | 167 | 0.0 | 0.0 | 0.00 | 0.00 | 0.00 | 82 | 1003.9 |
| 20260506005951 | 26 | 162 | 0.0 | 0.0 | 0.00 | 0.00 | 0.00 | 82 | 1004.1 |
| 20260506005449 | 26 | 208 | 8.0 | 14.5 | 0.00 | 0.00 | 0.00 | 82 | 1004.1 |
| 20260506004944 | 26 | 163 | 0.0 | 0.0 | 0.00 | 0.00 | 0.00 | 82 | 1004.1 |
| 20260506004443 | 26 | 162 | 4.8 | 9.7 | 0.00 | 0.00 | 0.00 | 81 | 1004.2 |
| 20260506003938 | 26 | 204 | 3.2 | 14.5 | 0.00 | 0.00 | 0.00 | 81 | 1004.3 |
| 20260506003435 | 26 | 144 | 9.7 | 11.3 | 0.00 | 0.00 | 0.00 | 81 | 1004.2 |
| 20260506002932 | 26 | 202 | 0.0 | 0.0 | 0.00 | 0.00 | 0.00 | 81 | 1004.2 |
| 20260506002428 | 27 | 190 | 3.2 | 14.5 | 0.00 | 0.00 | 0.00 | 80 | 1004.0 |
| 20260506001923 | 27 | 163 | 9.7 | 12.9 | 0.00 | 0.00 | 0.00 | 80 | 1004.1 |
| 20260506001421 | 27 | 160 | 4.8 | 6.4 | 0.00 | 0.00 | 0.00 | 80 | 1003.9 |
| 20260506000918 | 27 | 156 | 4.8 | 9.7 | 0.00 | 0.00 | 0.00 | 80 | 1003.8 |
| 20260506000416 | 27 | 167 | 6.4 | 9.7 | 0.00 | 0.00 | 0.00 | 80 | 1004.0 |
| 20260505235912 | 27 | 163 | 0.0 | 3.2 | 0.00 | 0.00 | 0.00 | 80 | 1003.9 |
| 20260505235410 | 27 | 170 | 1.6 | 6.4 | 0.00 | 0.00 | 0.00 | 80 | 1004.2 |
| 20260505234907 | 27 | 174 | 8.0 | 12.9 | 0.00 | 0.00 | 0.00 | 80 | 1003.9 |
| 20260505234404 | 27 | 171 | 9.7 | 12.9 | 0.00 | 0.00 | 0.00 | 79 | 1004.0 |
| 20260505233901 | 27 | 156 | 6.4 | 11.3 | 0.00 | 0.00 | 0.00 | 79 | 1004.2 |
| 20260505233359 | 27 | 207 | 14.5 | 17.7 | 0.00 | 0.00 | 0.00 | 79 | 1004.0 |
| 20260505232856 | 27 | 156 | 8.0 | 11.3 | 0.00 | 0.00 | 0.00 | 78 | 1003.8 |
| 20260505232354 | 27 | 192 | 8.0 | 11.3 | 0.00 | 0.00 | 0.00 | 78 | 1003.8 |
| 20260505231850 | 27 | 185 | 9.7 | 11.3 | 0.00 | 0.00 | 0.00 | 78 | 1003.8 |
| 20260505231348 | 28 | 158 | 4.8 | 14.5 | 0.00 | 0.00 | 0.00 | 78 | 1004.0 |
| 20260505230846 | 28 | 158 | 6.4 | 11.3 | 0.00 | 0.00 | 0.00 | 77 | 1003.7 |
| 20260505230343 | 28 | 153 | 12.9 | 20.9 | 0.00 | 0.00 | 0.00 | 77 | 1003.5 |
| 20260505225839 | 28 | 140 | 8.0 | 11.3 | 0.00 | 0.00 | 0.00 | 77 | 1003.6 |
| 20260505225337 | 28 | 193 | 0.0 | 0.0 | 0.00 | 0.00 | 0.00 | 77 | 1003.5 |
| 20260505224831 | 28 | 185 | 9.7 | 11.3 | 0.00 | 0.00 | 0.00 | 77 | 1003.5 |
| 20260505224330 | 28 | 178 | 4.8 | 4.8 | 0.00 | 0.00 | 0.00 | 76 | 1003.4 |
| 20260505223826 | 29 | 159 | 0.0 | 0.0 | 0.00 | 0.00 | 0.00 | 75 | 1003.5 |
| 20260505223323 | 29 | 187 | 8.0 | 9.7 | 0.00 | 0.00 | 0.00 | 74 | 1003.3 |
| 20260505222819 | 29 | 198 | 6.4 | 9.7 | 0.00 | 0.00 | 0.00 | 73 | 1003.7 |
| 20260505222315 | 29 | 176 | 4.8 | 9.7 | 0.00 | 0.00 | 0.00 | 73 | 1003.7 |
| 20260505221813 | 29 | 197 | 8.0 | 12.9 | 0.00 | 0.00 | 0.00 | 73 | 1003.6 |
| 20260505221309 | 29 | 196 | 6.4 | 9.7 | 0.00 | 0.00 | 0.00 | 74 | 1003.5 |
| 20260505220806 | 29 | 194 | 9.7 | 14.5 | 0.00 | 0.00 | 0.00 | 73 | 1003.4 |
| 20260505220303 | 30 | 157 | 12.9 | 14.5 | 0.00 | 0.00 | 0.00 | 72 | 1003.6 |
| 20260505215802 | 30 | 186 | 8.0 | 9.7 | 0.00 | 0.00 | 0.00 | 71 | 1003.7 |
| 20260505215259 | 30 | 185 | 1.6 | 4.8 | 0.00 | 0.00 | 0.00 | 72 | 1003.6 |
| 20260505214756 | 30 | 175 | 12.9 | 14.5 | 0.00 | 0.00 | 0.00 | 71 | 1003.7 |
| 20260505214254 | 30 | 188 | 6.4 | 9.7 | 0.00 | 0.00 | 0.00 | 71 | 1003.4 |
| 20260505213751 | 30 | 195 | 12.9 | 14.5 | 0.00 | 0.00 | 0.00 | 71 | 1003.4 |
| 20260505213249 | 30 | 173 | 9.7 | 12.9 | 0.00 | 0.00 | 0.00 | 71 | 1003.7 |
| 20260505212744 | 30 | 179 | 9.7 | 12.9 | 0.00 | 0.00 | 0.00 | 71 | 1003.6 |
| 20260505212242 | 30 | 186 | 9.7 | 14.5 | 0.00 | 0.00 | 0.00 | 69 | 1003.6 |
| 20260505211738 | 30 | 190 | 8.0 | 11.3 | 0.00 | 0.00 | 0.00 | 71 | 1003.8 |
| 20260505211236 | 30 | 160 | 6.4 | 9.7 | 0.00 | 0.00 | 0.00 | 70 | 1003.8 |
| 20260505210732 | 30 | 193 | 6.4 | 9.7 | 0.00 | 0.00 | 0.00 | 72 | 1003.9 |
| 20260505210229 | 30 | 228 | 9.7 | 14.5 | 0.00 | 0.00 | 0.00 | 71 | 1004.0 |
| 20260505205726 | 30 | 181 | 11.3 | 16.1 | 0.00 | 0.00 | 0.00 | 71 | 1003.9 |
| 20260505205224 | 30 | 177 | 14.5 | 20.9 | 0.00 | 0.00 | 0.00 | 71 | 1003.7 |
| 20260505204720 | 30 | 174 | 3.2 | 4.8 | 0.00 | 0.00 | 0.00 | 71 | 1003.8 |
| 20260505204219 | 30 | 194 | 14.5 | 17.7 | 0.00 | 0.00 | 0.00 | 70 | 1004.3 |
| 20260505203715 | 30 | 197 | 9.7 | 11.3 | 0.00 | 0.00 | 0.00 | 70 | 1004.1 |
| 20260505203212 | 30 | 217 | 8.0 | 14.5 | 0.00 | 0.00 | 0.00 | 73 | 1004.3 |
| 20260505202708 | 30 | 193 | 16.1 | 22.5 | 0.00 | 0.00 | 0.00 | 71 | 1004.3 |
| 20260505202204 | 30 | 195 | 8.0 | 12.9 | 0.00 | 0.00 | 0.00 | 72 | 1004.3 |
| 20260505201701 | 30 | 213 | 8.0 | 11.3 | 0.00 | 0.00 | 0.00 | 73 | 1004.1 |
| 20260505201159 | 29 | 222 | 11.3 | 17.7 | 0.00 | 0.00 | 0.00 | 71 | 1004.4 |
| 20260505200657 | 29 | 184 | 12.9 | 17.7 | 0.00 | 0.00 | 0.00 | 74 | 1004.2 |
| 20260505200153 | 29 | 240 | 3.2 | 6.4 | 0.00 | 0.00 | 0.00 | 73 | 1004.4 |
| 20260505195649 | 29 | 198 | 9.7 | 12.9 | 0.00 | 0.00 | 0.00 | 72 | 1004.3 |
| 20260505195147 | 28 | 208 | 14.5 | 16.1 | 0.00 | 0.00 | 0.00 | 73 | 1004.4 |
| 20260505194644 | 28 | 220 | 14.5 | 17.7 | 0.00 | 0.00 | 0.00 | 73 | 1004.5 |
| 20260505194140 | 28 | 190 | 9.7 | 9.7 | 0.00 | 0.00 | 0.00 | 74 | 1004.6 |
| 20260505193636 | 28 | 203 | 8.0 | 9.7 | 0.00 | 0.00 | 0.00 | 73 | 1004.4 |
| 20260505193134 | 28 | 236 | 9.7 | 11.3 | 0.00 | 0.00 | 0.00 | 73 | 1004.5 |
| 20260505192632 | 28 | 199 | 11.3 | 12.9 | 0.00 | 0.00 | 0.00 | 74 | 1004.5 |
| 20260505192129 | 28 | 237 | 14.5 | 17.7 | 0.00 | 0.00 | 0.00 | 72 | 1004.7 |
| 20260505191628 | 28 | 205 | 17.7 | 22.5 | 0.00 | 0.00 | 0.00 | 73 | 1004.7 |
| 20260505191125 | 28 | 190 | 8.0 | 9.7 | 0.00 | 0.00 | 0.00 | 75 | 1004.7 |
| 20260505190621 | 28 | 206 | 12.9 | 16.1 | 0.00 | 0.00 | 0.00 | 75 | 1004.6 |
| 20260505190116 | 28 | 224 | 14.5 | 17.7 | 0.00 | 0.00 | 0.00 | 73 | 1004.8 |
| 20260505185613 | 28 | 168 | 9.7 | 12.9 | 0.00 | 0.00 | 0.00 | 74 | 1004.8 |
| 20260505185109 | 28 | 196 | 9.7 | 14.5 | 0.00 | 0.00 | 0.00 | 74 | 1004.9 |
| 20260505184606 | 28 | 199 | 9.7 | 12.9 | 0.00 | 0.00 | 0.00 | 74 | 1004.8 |
| 20260505184103 | 27 | 227 | 9.7 | 11.3 | 0.00 | 0.00 | 0.00 | 75 | 1005.0 |
| 20260505183559 | 27 | 182 | 12.9 | 17.7 | 0.00 | 0.00 | 0.00 | 75 | 1005.0 |
| 20260505183057 | 27 | 218 | 14.5 | 17.7 | 0.00 | 0.00 | 0.00 | 74 | 1005.0 |
| 20260505182553 | 27 | 224 | 9.7 | 11.3 | 0.00 | 0.00 | 0.00 | 75 | 1005.3 |
| 20260505182050 | 27 | 198 | 11.3 | 14.5 | 0.00 | 0.00 | 0.00 | 75 | 1005.3 |
| 20260505181546 | 27 | 211 | 14.5 | 17.7 | 0.00 | 0.00 | 0.00 | 76 | 1005.3 |
| 20260505181044 | 27 | 209 | 12.9 | 16.1 | 0.00 | 0.00 | 0.00 | 76 | 1005.3 |
| 20260505180539 | 27 | 223 | 9.7 | 12.9 | 0.00 | 0.00 | 0.00 | 76 | 1005.1 |
| 20260505180038 | 27 | 162 | 16.1 | 24.1 | 0.00 | 0.00 | 0.00 | 76 | 1005.4 |
| 20260505175537 | 27 | 191 | 11.3 | 12.9 | 0.00 | 0.00 | 0.00 | 77 | 1005.2 |
| 20260505175035 | 26 | 202 | 14.5 | 24.1 | 0.00 | 0.00 | 0.00 | 78 | 1005.1 |
| 20260505174532 | 26 | 202 | 17.7 | 22.5 | 0.00 | 0.00 | 0.00 | 78 | 1005.3 |
| 20260505174028 | 26 | 209 | 14.5 | 20.9 | 0.00 | 0.00 | 0.00 | 78 | 1005.3 |
| 20260505173525 | 26 | 198 | 8.0 | 11.3 | 0.00 | 0.00 | 0.00 | 79 | 1005.0 |
| 20260505173022 | 26 | 214 | 9.7 | 17.7 | 0.00 | 0.00 | 0.00 | 78 | 1005.0 |
| 20260505172520 | 26 | 245 | 8.0 | 11.3 | 0.00 | 0.00 | 0.00 | 78 | 1005.2 |
| 20260505172015 | 26 | 165 | 16.1 | 17.7 | 0.00 | 0.00 | 0.00 | 78 | 1004.9 |
| 20260505171510 | 26 | 176 | 14.5 | 17.7 | 0.00 | 0.00 | 0.00 | 81 | 1004.9 |
| 20260505171008 | 25 | 190 | 12.9 | 17.7 | 0.00 | 0.00 | 0.00 | 80 | 1005.2 |
| 20260505170505 | 25 | 175 | 17.7 | 22.5 | 0.00 | 0.00 | 0.00 | 81 | 1005.2 |
| 20260505170000 | 25 | 214 | 14.5 | 17.7 | 0.00 | 0.00 | 0.00 | 81 | 1005.2 |
| 20260505165456 | 25 | 183 | 12.9 | 16.1 | 0.00 | 0.00 | 0.00 | 82 | 1005.1 |
| 20260505164952 | 25 | 195 | 16.1 | 22.5 | 0.00 | 0.00 | 0.00 | 82 | 1004.9 |
| 20260505164448 | 25 | 200 | 22.5 | 27.4 | 0.00 | 0.00 | 0.00 | 81 | 1004.9 |
| 20260505163946 | 25 | 205 | 12.9 | 16.1 | 0.00 | 0.00 | 0.00 | 82 | 1005.0 |
| 20260505163445 | 25 | 238 | 17.7 | 25.7 | 0.00 | 0.00 | 0.00 | 81 | 1005.0 |
| 20260505162944 | 25 | 214 | 14.5 | 16.1 | 0.00 | 0.00 | 0.00 | 82 | 1005.3 |
| 20260505162439 | 25 | 194 | 19.3 | 25.7 | 0.00 | 0.00 | 0.00 | 82 | 1005.5 |
| 20260505161936 | 25 | 184 | 22.5 | 25.7 | 0.00 | 0.00 | 0.00 | 82 | 1005.2 |
| 20260505161433 | 25 | 191 | 14.5 | 16.1 | 0.00 | 0.00 | 0.00 | 82 | 1005.0 |
| 20260505160930 | 25 | 187 | 8.0 | 11.3 | 0.00 | 0.00 | 0.00 | 82 | 1005.3 |
| 20260505160429 | 24 | 155 | 9.7 | 12.9 | 0.00 | 0.00 | 0.00 | 83 | 1005.0 |
| 20260505152904 | 23 | 186 | 17.7 | 22.5 | 0.00 | 0.00 | 0.00 | 85 | 1005.1 |
| 20260505152356 | 23 | 207 | 11.3 | 14.5 | 0.00 | 0.00 | 0.00 | 85 | 1005.1 |
| 20260505151855 | 23 | 217 | 17.7 | 25.7 | 0.00 | 0.00 | 0.00 | 85 | 1005.3 |
| 20260505151352 | 23 | 235 | 12.9 | 17.7 | 0.00 | 0.00 | 0.00 | 85 | 1005.4 |
| 20260505150849 | 23 | 244 | 11.3 | 14.5 | 0.00 | 0.00 | 0.00 | 85 | 1005.7 |
| 20260505150347 | 23 | 161 | 24.1 | 29.0 | 0.00 | 0.00 | 0.00 | 84 | 1005.4 |
| 20260505140311 | 22 | 196 | 20.9 | 25.7 | 0.00 | 0.00 | 0.00 | 87 | 1004.8 |
| 20260505130229 | 21 | 215 | 16.1 | 20.9 | 0.00 | 0.00 | 0.00 | 91 | 1004.6 |
| 20260505124719 | 21 | 218 | 14.5 | 27.4 | 0.00 | 0.00 | 0.00 | 92 | 1004.2 |
| 20260505124216 | 21 | 196 | 12.9 | 16.1 | 0.00 | 0.00 | 0.00 | 92 | 1004.1 |
| 20260505123711 | 20 | 200 | 11.3 | 16.1 | 0.00 | 0.00 | 0.00 | 92 | 1004.3 |
| 20260505123208 | 20 | 190 | 11.3 | 14.5 | 0.00 | 0.00 | 0.00 | 92 | 1004.4 |
| 20260505122704 | 20 | 196 | 14.5 | 16.1 | 0.00 | 0.00 | 0.00 | 92 | 1004.2 |